Regional Weather Roundup
Issued by NWS

Home | Current Version | Previous Version | Graphics & Text | Print | Product List | Glossary Off
Versions: 1 2 3 4 5 6 7 8 9 10 11 12 13 14 15 16 17 18 19 20 21 22 23 24 25 26 27 28 29 30 31 32 33 34 35 36 37 38 39 40 41 42 43 44 45 46 47 48 49 50

000
ASUS43 KDTX 091910
RWRMI
MICHIGAN HOURLY REGIONAL WEATHER ROUNDUP
NATIONAL WEATHER SERVICE DETROIT/PONTIAC MI
200 PM EST TUE FEB 09 2016

NOTE: "FAIR" INDICATES FEW OR NO CLOUDS BELOW 12,000 FEET WITH NO
SIGNIFICANT WEATHER AND/OR OBSTRUCTION TO VISIBILITY.

MIZ047>049-052>055-059>063-066>070-074>076-081>083-092000-
SOUTHEAST LOWER MICHIGAN

CITY           SKY/WX    TMP DP  RH WIND       PRES   REMARKS
ADRIAN         CLOUDY    27  20  75 NW15G24   29.63R WCI  15
ALMA           CLOUDY    29  23  78 NW14G20   29.62S WCI  18
ANN ARBOR      LGT SNOW  27  21  78 NW15G25   29.59S WCI  15
BAD AXE        LGT SNOW  29  27  92 NW13      29.51S VSB 1   WCI  19
CARO           CLOUDY    27  25  93 W14       29.54F VSB 3/4 WCI  15
DETROIT CITY   LGT SNOW  29  24  82 NW14G23   29.57S WCI  18
DETROIT        CLOUDY    30  23  75 W16       29.59S WCI  19
FLINT          LGT SNOW  29  22  75 W18       29.58S VSB 1   WCI  16
GROSSE ILE     CLOUDY    32  27  80 W9        29.57S WCI  24
HILLSDALE      CLOUDY    26  19  76 NW17G29   29.61S WCI  13
HOWELL         CLOUDY    27  23  84 W15       29.59S FOG     WCI  15

CITY           SKY/WX    TMP DP  RH WIND       PRES   REMARKS
JACKSON        CLOUDY    26  19  74 NW15G23   29.61S WCI  14
LAMBERTVILLE   CLOUDY    29  24  82 NW7G16    29.62S WCI  21
LANSING        CLOUDY    27  19  72 NW17G24   29.62F WCI  14
LAPEER         LGT SNOW  27  25  90 W13G18    29.55S WCI  16
MASON          CLOUDY    26  20  79 W16G22    29.62S WCI  14
MONROE         CLOUDY    30  25  79 W14       29.59S WCI  20
MT. CLEMENS    LGT SNOW  29  25  84 W20G25    29.53S FOG     WCI  16
PONTIAC        LGT SNOW  27  22  81 W18       29.55S VSB 1   WCI  14
PORT HOPE        N/A     30  29  96 NW22G31   29.48S WCI  17
PORT HURON     LGT SNOW  27  27 100 W7        29.52F VSB 3/4 WCI  19
TRI CITIES     SNOW      30  23  75 NW16      29.58S VSB 1/2 WCI  19
MIDLAND        LGT SNOW  29  22  73 W14G21    29.58S WCI  19
TROY           CLOUDY    30  26  84 W15G24    29.57F HAZE    WCI  19
SAGINAW HB     LGT SNOW  30  28  93 W13       29.57S VSB 1   WCI  20
$$
MIZ043>046-050>051-056>058-064>065-071>073-077>080-092000-
SOUTHWEST LOWER MICHIGAN

CITY           SKY/WX    TMP DP  RH WIND       PRES   REMARKS
BATTLE CREEK   CLOUDY    26  18  71 W18       29.65F WCI  13
BENTON HARBOR  LGT SNOW  25  18  74 W13G21    29.75S WCI  14
BIG RAPIDS     CLOUDY    25  19  78 NW13      29.63S WCI  14
COLDWATER      CLOUDY    27  20  75 NW16      29.65S WCI  15
FREMONT        CLOUDY    25  18  73 NW14      29.67S WCI  14
HOLLAND        LGT SNOW  27  20  75 NW18G25   29.71S WCI  14
GRAND RAPIDS   FLURRIES  27  19  72 NW17      29.66F WCI  14
IONIA          CLOUDY    27  19  73 NW12G20   29.63S WCI  17
KALAMAZOO      CLOUDY    27  19  72 NW15G26   29.67S WCI  15
LUDINGTON      LGT SNOW  23  19  85 NW15G23   29.72S WCI  10
MARSHALL       CLOUDY    27  18  71 NW12G20   29.64S WCI  16
MOUNT PLEASANT CLOUDY    28  20  69 NW9G18    29.61S WCI  20
MUSKEGON       LGT SNOW  26  17  68 NW17G24   29.71S WCI  13
SOUTH HAVEN    LGT SNOW  26  21  81 NW14G23   29.72F WCI  14
$$
MIZ016>042-092000-
NORTHERN LOWER MICHIGAN

CITY           SKY/WX    TMP DP  RH WIND       PRES   REMARKS
ALPENA         LGT SNOW  29  24  82 NW12      29.55S WCI  19
BEAVER ISLAND  CLOUDY    24  18  78 NW12G21   29.65F WCI  13
BELLAIRE       LGT SNOW  27  22  82 NW6       29.65S WCI  20
CADILLAC       CLOUDY    23  18  78 NW12G21   29.60S WCI  12
CHARLEVOIX     LGT SNOW  26  22  84 NW14      29.67S WCI  15
FRANKFORT      FLURRIES  25  18  76 NW13G20   29.70S WCI  13
GAYLORD        CLOUDY    25  20  81 NW8G21    29.56S WCI  16
GRAYLING       FLURRIES  26  19  75 NW15      29.58F WCI  13
HARBOR SPRINGS LGT SNOW  24  19  81 NW9       29.63R WCI  15
HOUGHTON LAKE  CLOUDY    25  18  74 NW14G24   29.58F WCI  13
MANISTEE       CLOUDY    25  16  68 NW13G22   29.70S WCI  13
OSCODA         LGT SNOW  30  27  88 NW12G22   29.52S WCI  20
PELLSTON       LGT SNOW  24  19  81 NW16G25   29.62S WCI  11
ROGERS CITY    CLOUDY    28  24  86 NW13G20   29.57S WCI  17
TRAVERSE CITY  FLURRIES  26  18  71 NW15      29.66S WCI  14
$$
MIZ007>008-015-092000-
EASTERN UPPER MICHIGAN

CITY           SKY/WX    TMP DP  RH WIND       PRES   REMARKS
KINROSS        CLOUDY    25  21  86 N18       29.59S WCI  11
MACKINAC ISLAN LGT SNOW  24  21  87 NW9       29.60S WCI  14
NEWBERRY       LGT SNOW  19  14  81 NW12G24   29.64F WCI   6
S. S. MARIE    LGT SNOW  26  18  71 N10       29.59S WCI  16
$$
MIZ004>006-011>014-085-092000-
CENTRAL UPPER MICHIGAN

CITY           SKY/WX    TMP DP  RH WIND       PRES   REMARKS
MANISTIQUE     FLURRIES  21  13  71 N20G28    29.68S WCI   6
ESCANABA       CLOUDY    19  10  68 N14G26    29.75S WCI   6
MENOMINEE      CLOUDY    18   7  62 NW18G24   29.78F WCI   2
SAWYER-GWINN   SNOW      14   9  79 N21G29    29.74S VSB 1/2 WCI  -4
$$
MIZ001>003-009>011-084-092000-
WESTERN UPPER MICHIGAN

CITY           SKY/WX    TMP DP  RH WIND       PRES   REMARKS
IRON MOUNTAIN  LGT SNOW  14   4  64 NW25G32   29.78S WCI  -5
HOUGHTON       HVY SNOW  11   4  73 N22G31    29.87S VSB 1/4 WCI  -8
COPPER HARBOR    N/A     16  12  84 NE26G37   29.86S WCI  -3
IRONWOOD       CLOUDY    10   5  79 NW15      29.92S WCI  -6
$$

ABBREVIATIONS USED IN REMARKS
   TC - TEMPERATURE IN CELSIUS
  WCI - WIND CHILL INDEX
   HX - HEAT INDEX
  VSB - VISIBILITY




USA.gov is the U.S. government's official web portal to all federal, state and local government web resources and services.